User: anonymous   Login
Location: Caltech
(34.1382°N, 118.1253°W)
Time: 16:12:44
(UTC-08:00)
Language:

ERBS - Orbit

View from above orbital plane
View from above orbital plane
View from above satellite
View from above satellite

Ground track
Ground track

The orbit data is extracted from the following two-line orbital elements,

1 15354U 84108B   17323.11689488  .00003392  00000-0  79750-4 0  9999
2 15354  57.0067 190.8474 0015249  58.3997 301.8545 15.44812389822137
Epoch (UTC): 19 November 2017 02:48:19
Eccentricity: 0.0015249
inclination: 57.0067°
perigee height: 421 km
apogee height: 442 km
right ascension of ascending node: 190.8474°
argument of perigee: 58.3997°
revolutions per day: 15.44812389
mean anomaly at epoch: 301.8545°
orbit number at epoch: 82213

The dashed part of the orbit path shows where the satellite is in the earth's shadow,  

DLR